User: anonymous   Login
Location: Campillo
(40.8621°N, 4.2488°W)
Time: 00:47:18
(UTC+00:00)
Language:

Cosmos 1777 Rocket - Orbit

View from above orbital plane
View from above orbital plane
View from above satellite
View from above satellite

Ground track
Ground track

The orbit data is extracted from the following two-line orbital elements,

1 16953U 86070B   21213.49673574  .00000081  00000-0  36080-4 0  9999
2 16953  74.0124  20.7227 0013069 244.4218 115.5585 14.37430562828247
Epoch (UTC): 01 August 2021 11:55:17
Eccentricity: 0.0013069
inclination: 74.0124°
perigee height: 757 km
apogee height: 776 km
right ascension of ascending node: 20.7227°
argument of perigee: 244.4218°
revolutions per day: 14.37430562
mean anomaly at epoch: 115.5585°
orbit number at epoch: 82824

The dashed part of the orbit path shows where the satellite is in the earth's shadow,  

DLR